Regional Weather Roundup
Issued by NWS

Home | Current Version | Previous Version | Text Only | Print | Product List | Glossary Off
Versions: 1 2 3 4 5 6 7 8 9 10 11 12 13 14 15 16 17 18 19 20 21 22 23 24 25 26 27

000
ASUS45 KBOI 240310
RWRID

IDAHO REGIONAL WEATHER ROUNDUP
NATIONAL WEATHER SERVICE BOISE ID
900 PM MDT MON MAY 23 2016

NOTE: "FAIR" INDICATES FEW OR NO CLOUDS BELOW 12000 FEET
WITH NO SIGNIFICANT WEATHER AND/OR OBSTRUCTIONS TO VISIBILITY

IDZ012-014-240400-
SOUTHWEST IDAHO


CITY           SKY/WX    TMP DP  RH WIND       PRES   REMARKS
BOISE          PTCLDY    64  32  30 NW7       29.80R
CALDWELL       CLEAR     61  40  45 NW6       29.80R
MOUNTAIN HOME  MOCLDY    66  36  32 N9        29.80R
$$

IDZ016-017-240400-
SOUTHCENTRAL IDAHO


CITY           SKY/WX    TMP DP  RH WIND       PRES   REMARKS
BURLEY         MOCLDY    53  40  61 S7        29.84S
JEROME         PTCLDY    53  41  63 SE8       29.84S
TWIN FALLS     MOCLDY    50  42  74 SE9       29.84S
$$

IDZ019>023-240400-
SOUTHEAST IDAHO


CITY           SKY/WX    TMP DP  RH WIND       PRES   REMARKS
IDAHO FALLS    CLEAR     55  31  39 S12       29.85R
POCATELLO      PTCLDY    52  40  63 S3        29.86R
REXBURG        CLEAR     53  32  44 S9        29.84R
$$

IDZ006-010-011-018-031-032-240400-
CENTRAL IDAHO MOUNTAINS


CITY           SKY/WX    TMP DP  RH WIND       PRES   REMARKS
MCCALL         CLOUDY    48  37  65 NE5       29.86S
HAILEY         MOCLDY    54  28  37 SW13      29.86R
STANLEY          N/A     44  28  53 CALM      29.90S
SALMON         CLOUDY    52  36  54 N7        29.83R
CHALLIS        CLOUDY    49  31  49 NW6       29.85R
$$

IDZ002-004-006-007-026-240400-
NORTHERN IDAHO


CITY           SKY/WX    TMP DP  RH WIND       PRES   REMARKS
LEWISTON       CLOUDY    59  44  57 E8        29.84S
LOWELL           N/A     53  48  83 CALM      29.88R
COEUR D`ALENE  CLOUDY    50  46  87 E9        29.83S
MULLAN PASS    LGT RAIN  34  33  96 SW5       29.86S VSB 1/4 WCI  30
$$




USA.gov is the U.S. government's official web portal to all federal, state and local government web resources and services.